Private Wetterstation Wechselburg
Wetterdaten: Mittwoch, 21.10.2020
Datum Zeit Temp. +2m Bodentemp. Temp.+5cm Temp. Wind Windchill X Diff Temp. Feuchte +2m Feuchte +5cm Luftdruck Regen Wind Richtung Richtung Sonnenschein Taupunkt Windchill Windben
21.10.2020 00:00 9,5 C 11,3 C 8,8 C 9,4 C 9,3 C 0,0 C 82 % 88 % 1014,9 hPa 0,0 l/m 0,0 km/h (0 Bft) NO 45 0 min 6,6 C 9,3 C 0,0 km/h (0 Bft)
21.10.2020 00:05 9,5 C 11,3 C 8,8 C 9,4 C 9,3 C 0,0 C 83 % 88 % 1014,9 hPa 0,0 l/m 0,0 km/h (0 Bft) NO 45 0 min 6,8 C 9,3 C 0,0 km/h (0 Bft)
21.10.2020 00:10 9,5 C 11,4 C 8,8 C 9,3 C 9,0 C 0,0 C 83 % 88 % 1014,9 hPa 0,0 l/m 0,0 km/h (0 Bft) NO 45 0 min 6,8 C 9,0 C 0,0 km/h (0 Bft)
21.10.2020 00:15 9,5 C 11,4 C 8,7 C 9,3 C 8,9 C 0,0 C 83 % 89 % 1015,5 hPa 0,0 l/m 0,0 km/h (0 Bft) NO 45 0 min 6,8 C 8,9 C 0,0 km/h (0 Bft)
21.10.2020 00:20 9,5 C 11,4 C 8,7 C 9,3 C 8,9 C 0,0 C 83 % 89 % 1015,5 hPa 0,0 l/m 0,0 km/h (0 Bft) NO 45 0 min 6,8 C 8,9 C 0,0 km/h (0 Bft)
21.10.2020 00:25 9,3 C 11,4 C 8,7 C 9,2 C 9,0 C 0,0 C 83 % 89 % 1015,5 hPa 0,0 l/m 0,0 km/h (0 Bft) NO 45 0 min 6,6 C 9,0 C 0,0 km/h (0 Bft)
21.10.2020 00:30 9,3 C 11,4 C 8,7 C 9,2 C 9,0 C 0,0 C 83 % 89 % 1015,5 hPa 0,0 l/m 0,0 km/h (0 Bft) NO 45 0 min 6,6 C 9,0 C 0,0 km/h (0 Bft)
21.10.2020 00:35 9,2 C 11,3 C 8,7 C 9,1 C 9,0 C 0,0 C 83 % 89 % 1015,2 hPa 0,0 l/m 0,0 km/h (0 Bft) NO 45 0 min 6,5 C 9,0 C 0,0 km/h (0 Bft)
21.10.2020 00:40 9,2 C 11,3 C 8,7 C 9,2 C 9,1 C 0,0 C 83 % 89 % 1015,2 hPa 0,0 l/m 0,0 km/h (0 Bft) SO 135 0 min 6,5 C 9,1 C 0,0 km/h (0 Bft)
21.10.2020 00:45 9,2 C 11,3 C 8,7 C 9,2 C 9,2 C 0,0 C 83 % 89 % 1015,2 hPa 0,0 l/m 0,0 km/h (0 Bft) SO 135 0 min 6,5 C 9,2 C 0,0 km/h (0 Bft)
21.10.2020 00:50 9,3 C 11,4 C 8,7 C 9,3 C 9,2 C 0,0 C 83 % 89 % 1015,2 hPa 0,0 l/m 0,0 km/h (0 Bft) SO 135 0 min 6,6 C 9,2 C 0,0 km/h (0 Bft)
21.10.2020 00:55 9,3 C 11,4 C 8,7 C 9,3 C 9,2 C 0,0 C 83 % 89 % 1015,3 hPa 0,0 l/m 0,0 km/h (0 Bft) SO 135 0 min 6,6 C 9,2 C 0,0 km/h (0 Bft)
21.10.2020 01:00 9,3 C 11,4 C 8,7 C 9,3 C 9,2 C 0,0 C 83 % 89 % 1015,3 hPa 0,0 l/m 0,0 km/h (0 Bft) SO 135 0 min 6,6 C 9,2 C 0,0 km/h (0 Bft)
21.10.2020 01:05 9,2 C 11,4 C 8,7 C 9,3 C 9,3 C 0,1 C 83 % 89 % 1015,3 hPa 0,0 l/m 0,0 km/h (0 Bft) O-NO 67 0 min 6,5 C 9,3 C 0,0 km/h (0 Bft)
21.10.2020 01:10 9,2 C 11,4 C 8,7 C 9,3 C 9,3 C 0,1 C 84 % 89 % 1015,3 hPa 0,0 l/m 0,0 km/h (0 Bft) O-NO 67 0 min 6,6 C 9,3 C 0,0 km/h (0 Bft)
21.10.2020 01:15 9,1 C 11,3 C 8,7 C 9,4 C 9,4 C 0,3 C 84 % 89 % 1015,6 hPa 0,0 l/m 0,0 km/h (0 Bft) O-NO 67 0 min 6,5 C 9,4 C 0,0 km/h (0 Bft)
21.10.2020 01:20 9,1 C 11,3 C 8,7 C 9,4 C 9,4 C 0,3 C 84 % 89 % 1015,6 hPa 0,0 l/m 0,0 km/h (0 Bft) O-NO 67 0 min 6,5 C 9,4 C 0,0 km/h (0 Bft)
21.10.2020 01:25 9,1 C 11,4 C 8,7 C 9,4 C 9,4 C 0,3 C 84 % 89 % 1015,6 hPa 0,0 l/m 0,0 km/h (0 Bft) S-SO 157 0 min 6,5 C 9,4 C 0,0 km/h (0 Bft)
21.10.2020 01:30 9,2 C 11,4 C 8,7 C 9,4 C 9,4 C 0,2 C 84 % 89 % 1015,6 hPa 0,0 l/m 0,0 km/h (0 Bft) S-SO 157 0 min 6,6 C 9,4 C 0,0 km/h (0 Bft)
21.10.2020 01:35 9,1 C 11,4 C 8,7 C 9,3 C 9,3 C 0,2 C 84 % 89 % 1015,3 hPa 0,0 l/m 0,0 km/h (0 Bft) O 90 0 min 6,5 C 9,3 C 0,0 km/h (0 Bft)
21.10.2020 01:40 9,1 C 11,4 C 8,7 C 9,3 C 9,3 C 0,2 C 84 % 89 % 1015,3 hPa 0,0 l/m 0,0 km/h (0 Bft) O-NO 67 0 min 6,5 C 9,3 C 0,0 km/h (0 Bft)
21.10.2020 01:45 9,1 C 11,4 C 8,7 C 9,4 C 9,4 C 0,3 C 84 % 89 % 1015,3 hPa 0,0 l/m 0,0 km/h (0 Bft) O-NO 67 0 min 6,5 C 9,4 C 0,0 km/h (0 Bft)
21.10.2020 01:50 9,1 C 11,3 C 8,7 C 9,5 C 9,5 C 0,4 C 84 % 89 % 1015,3 hPa 0,0 l/m 0,0 km/h (0 Bft) NW 315 0 min 6,5 C 9,5 C 1,6 km/h (1 Bft)
21.10.2020 01:55 9,1 C 11,3 C 8,8 C 9,6 C 9,6 C 0,5 C 84 % 90 % 1014,9 hPa 0,0 l/m 0,0 km/h (0 Bft) SW 225 0 min 6,5 C 9,6 C 0,0 km/h (0 Bft)
21.10.2020 02:00 9,2 C 11,3 C 8,8 C 9,7 C 9,7 C 0,5 C 85 % 90 % 1014,9 hPa 0,0 l/m 0,0 km/h (0 Bft) SW 225 0 min 6,8 C 9,7 C 0,0 km/h (0 Bft)
21.10.2020 02:05 9,2 C 11,3 C 8,9 C 9,7 C 9,7 C 0,5 C 85 % 90 % 1014,9 hPa 0,0 l/m 0,0 km/h (0 Bft) W-SW 247 0 min 6,8 C 9,7 C 0,0 km/h (0 Bft)
21.10.2020 02:10 9,2 C 11,4 C 8,8 C 9,7 C 9,7 C 0,5 C 85 % 90 % 1014,9 hPa 0,0 l/m 0,0 km/h (0 Bft) W-SW 247 0 min 6,8 C 9,7 C 0,0 km/h (0 Bft)
21.10.2020 02:15 9,2 C 11,4 C 8,8 C 9,7 C 9,7 C 0,5 C 85 % 90 % 1014,9 hPa 0,0 l/m 0,0 km/h (0 Bft) NW 315 0 min 6,8 C 9,7 C 0,0 km/h (0 Bft)
21.10.2020 02:20 9,2 C 11,4 C 8,9 C 9,7 C 9,7 C 0,5 C 85 % 90 % 1014,9 hPa 0,0 l/m 0,0 km/h (0 Bft) NW 315 0 min 6,8 C 9,7 C 0,0 km/h (0 Bft)
21.10.2020 02:25 9,2 C 11,4 C 8,9 C 9,8 C 9,8 C 0,6 C 85 % 90 % 1014,9 hPa 0,0 l/m 0,0 km/h (0 Bft) NO 45 0 min 6,8 C 9,8 C 0,0 km/h (0 Bft)
21.10.2020 02:30 9,3 C 11,3 C 8,9 C 9,9 C 9,9 C 0,6 C 85 % 90 % 1014,9 hPa 0,0 l/m 0,0 km/h (0 Bft) NO 45 0 min 6,9 C 9,9 C 0,0 km/h (0 Bft)
21.10.2020 02:35 9,3 C 11,3 C 9,0 C 10,0 C 10,0 C 0,7 C 85 % 90 % 1014,6 hPa 0,0 l/m 0,0 km/h (0 Bft) NO 45 0 min 6,9 C 10,0 C 0,0 km/h (0 Bft)
21.10.2020 02:40 9,3 C 11,3 C 9,0 C 10,0 C 10,0 C 0,7 C 85 % 90 % 1014,6 hPa 0,0 l/m 0,0 km/h (0 Bft) NO 45 0 min 6,9 C 10,0 C 0,0 km/h (0 Bft)
21.10.2020 02:45 9,3 C 11,3 C 9,1 C 10,1 C 10,1 C 0,8 C 85 % 90 % 1014,6 hPa 0,0 l/m 0,0 km/h (0 Bft) NO 45 0 min 6,9 C 10,1 C 0,0 km/h (0 Bft)
21.10.2020 02:50 9,5 C 11,3 C 9,1 C 10,2 C 10,2 C 0,7 C 85 % 90 % 1014,6 hPa 0,0 l/m 0,0 km/h (0 Bft) S 180 0 min 7,1 C 10,2 C 0,0 km/h (0 Bft)
21.10.2020 02:55 9,5 C 11,3 C 9,1 C 10,3 C 10,3 C 0,8 C 85 % 90 % 1014,6 hPa 0,0 l/m 0,0 km/h (0 Bft) S-SO 157 0 min 7,1 C 10,3 C 0,0 km/h (0 Bft)
21.10.2020 03:00 9,7 C 11,3 C 9,2 C 10,3 C 10,3 C 0,6 C 85 % 90 % 1014,6 hPa 0,0 l/m 0,0 km/h (0 Bft) S-SO 157 0 min 7,3 C 10,3 C 0,0 km/h (0 Bft)
21.10.2020 03:05 9,7 C 11,3 C 9,2 C 10,3 C 10,3 C 0,6 C 85 % 90 % 1014,6 hPa 0,0 l/m 0,0 km/h (0 Bft) S-SO 157 0 min 7,3 C 10,3 C 1,8 km/h (1 Bft)
21.10.2020 03:10 9,9 C 11,3 C 9,3 C 10,4 C 10,4 C 0,5 C 85 % 90 % 1014,6 hPa 0,0 l/m 0,0 km/h (0 Bft) W 270 0 min 7,5 C 10,4 C 0,0 km/h (0 Bft)
21.10.2020 03:15 10,0 C 11,2 C 9,5 C 10,5 C 10,5 C 0,5 C 84 % 89 % 1014,2 hPa 0,0 l/m 0,3 km/h (0 Bft) NO 45 0 min 7,4 C 10,5 C 6,0 km/h (2 Bft)
21.10.2020 03:20 10,1 C 11,2 C 9,5 C 10,5 C 10,5 C 0,4 C 84 % 89 % 1014,2 hPa 0,0 l/m 0,6 km/h (0 Bft) O-SO 112 0 min 7,5 C 10,5 C 0,0 km/h (0 Bft)
21.10.2020 03:25 10,3 C 11,2 C 9,5 C 10,5 C 10,5 C 0,2 C 84 % 89 % 1014,2 hPa 0,0 l/m 0,6 km/h (0 Bft) W 270 0 min 7,7 C 10,5 C 2,9 km/h (1 Bft)
21.10.2020 03:30 10,4 C 11,2 C 9,5 C 10,5 C 10,5 C 0,1 C 84 % 89 % 1014,2 hPa 0,0 l/m 0,3 km/h (0 Bft) W 270 0 min 7,8 C 10,5 C 0,0 km/h (0 Bft)
21.10.2020 03:35 10,5 C 11,2 C 9,5 C 10,5 C 10,5 C 0,0 C 83 % 89 % 1014,1 hPa 0,0 l/m 0,2 km/h (0 Bft) W 270 0 min 7,7 C 10,5 C 0,0 km/h (0 Bft)
21.10.2020 03:40 10,5 C 11,2 C 9,5 C 10,5 C 10,5 C 0,0 C 83 % 89 % 1014,1 hPa 0,0 l/m 0,0 km/h (0 Bft) W 270 0 min 7,7 C 10,5 C 0,0 km/h (0 Bft)
21.10.2020 03:45 10,5 C 11,2 C 9,5 C 10,5 C 10,5 C 0,0 C 83 % 89 % 1014,1 hPa 0,0 l/m 0,0 km/h (0 Bft) N-NO 22 0 min 7,7 C 10,5 C 0,0 km/h (0 Bft)
21.10.2020 03:50 10,4 C 11,2 C 9,5 C 10,5 C 10,5 C 0,1 C 83 % 89 % 1014,1 hPa 0,0 l/m 0,0 km/h (0 Bft) O-NO 67 0 min 7,6 C 10,5 C 0,0 km/h (0 Bft)
21.10.2020 03:55 10,4 C 11,2 C 9,5 C 10,5 C 10,5 C 0,1 C 83 % 89 % 1014,2 hPa 0,0 l/m 0,0 km/h (0 Bft) SW 225 0 min 7,6 C 10,5 C 0,0 km/h (0 Bft)
21.10.2020 04:00 10,4 C 11,2 C 9,5 C 10,5 C 10,5 C 0,1 C 83 % 89 % 1014,2 hPa 0,0 l/m 0,0 km/h (0 Bft) O-NO 67 0 min 7,6 C 10,5 C 0,0 km/h (0 Bft)
21.10.2020 04:05 10,4 C 11,3 C 9,5 C 10,5 C 10,5 C 0,1 C 83 % 89 % 1014,2 hPa 0,0 l/m 0,0 km/h (0 Bft) O-NO 67 0 min 7,6 C 10,5 C 0,0 km/h (0 Bft)
21.10.2020 04:10 10,4 C 11,2 C 9,5 C 10,5 C 10,5 C 0,1 C 83 % 89 % 1014,2 hPa 0,0 l/m 0,0 km/h (0 Bft) O-NO 67 0 min 7,6 C 10,5 C 0,0 km/h (0 Bft)
21.10.2020 04:15 10,3 C 11,3 C 9,5 C 10,5 C 10,5 C 0,2 C 82 % 89 % 1014,1 hPa 0,0 l/m 0,0 km/h (0 Bft) O-NO 67 0 min 7,4 C 10,5 C 0,0 km/h (0 Bft)
21.10.2020 04:20 10,3 C 11,3 C 9,4 C 10,5 C 10,5 C 0,2 C 82 % 89 % 1014,1 hPa 0,0 l/m 0,0 km/h (0 Bft) O-NO 67 0 min 7,4 C 10,5 C 0,0 km/h (0 Bft)
21.10.2020 04:25 10,3 C 11,2 C 9,4 C 10,3 C 10,3 C 0,0 C 82 % 89 % 1014,1 hPa 0,0 l/m 0,0 km/h (0 Bft) SO 135 0 min 7,4 C 10,3 C 0,0 km/h (0 Bft)
21.10.2020 04:30 10,3 C 11,2 C 9,4 C 10,3 C 10,3 C 0,0 C 82 % 89 % 1014,1 hPa 0,0 l/m 0,0 km/h (0 Bft) SO 135 0 min 7,4 C 10,3 C 0,0 km/h (0 Bft)
21.10.2020 04:35 10,2 C 11,2 C 9,4 C 10,3 C 10,3 C 0,1 C 82 % 89 % 1013,8 hPa 0,0 l/m 0,0 km/h (0 Bft) O-NO 67 0 min 7,3 C 10,3 C 0,0 km/h (0 Bft)
21.10.2020 04:40 10,3 C 11,2 C 9,4 C 10,3 C 10,2 C 0,0 C 82 % 89 % 1013,8 hPa 0,0 l/m 0,0 km/h (0 Bft) O-NO 67 0 min 7,4 C 10,2 C 0,0 km/h (0 Bft)
21.10.2020 04:45 10,3 C 11,2 C 9,3 C 10,2 C 10,1 C 0,0 C 82 % 89 % 1013,8 hPa 0,0 l/m 0,0 km/h (0 Bft) O-NO 67 0 min 7,4 C 10,1 C 0,0 km/h (0 Bft)
21.10.2020 04:50 10,3 C 11,2 C 9,4 C 10,2 C 10,1 C 0,0 C 82 % 89 % 1013,8 hPa 0,0 l/m 0,0 km/h (0 Bft) O-NO 67 0 min 7,4 C 10,1 C 0,0 km/h (0 Bft)
21.10.2020 04:55 10,2 C 11,3 C 9,3 C 10,2 C 10,1 C 0,0 C 82 % 89 % 1014,1 hPa 0,0 l/m 0,0 km/h (0 Bft) O-NO 67 0 min 7,3 C 10,1 C 0,0 km/h (0 Bft)
21.10.2020 05:00 10,2 C 11,2 C 9,3 C 10,1 C 10,0 C 0,0 C 82 % 89 % 1014,1 hPa 0,0 l/m 0,0 km/h (0 Bft) O-NO 67 0 min 7,3 C 10,0 C 0,0 km/h (0 Bft)
21.10.2020 05:05 10,1 C 11,3 C 9,2 C 10,1 C 10,0 C 0,0 C 82 % 89 % 1014,1 hPa 0,0 l/m 0,0 km/h (0 Bft) O-NO 67 0 min 7,2 C 10,0 C 0,0 km/h (0 Bft)
21.10.2020 05:10 10,0 C 11,4 C 9,2 C 10,0 C 9,9 C 0,0 C 82 % 89 % 1014,1 hPa 0,0 l/m 0,0 km/h (0 Bft) O-NO 67 0 min 7,1 C 9,9 C 0,0 km/h (0 Bft)
21.10.2020 05:15 10,1 C 11,4 C 9,1 C 10,0 C 9,7 C 0,0 C 82 % 89 % 1013,2 hPa 0,0 l/m 0,0 km/h (0 Bft) O-NO 67 0 min 7,2 C 9,7 C 0,0 km/h (0 Bft)
21.10.2020 05:20 10,0 C 11,4 C 9,1 C 9,9 C 9,6 C 0,0 C 82 % 89 % 1013,2 hPa 0,0 l/m 0,3 km/h (0 Bft) O-NO 67 0 min 7,1 C 9,6 C 1,9 km/h (1 Bft)
21.10.2020 05:25 9,9 C 11,4 C 9,0 C 9,8 C 9,6 C 0,0 C 82 % 89 % 1013,2 hPa 0,0 l/m 0,6 km/h (0 Bft) O-NO 67 0 min 7,0 C 9,6 C 0,0 km/h (0 Bft)
21.10.2020 05:30 9,9 C 11,4 C 9,0 C 9,8 C 9,5 C 0,0 C 82 % 89 % 1013,2 hPa 0,0 l/m 0,5 km/h (0 Bft) NO 45 0 min 7,0 C 9,5 C 0,0 km/h (0 Bft)
21.10.2020 05:35 9,9 C 11,4 C 8,9 C 9,8 C 9,5 C 0,0 C 82 % 90 % 1013,1 hPa 0,0 l/m 0,0 km/h (0 Bft) NO 45 0 min 7,0 C 9,5 C 0,0 km/h (0 Bft)
21.10.2020 05:40 9,9 C 11,4 C 8,9 C 9,8 C 9,5 C 0,0 C 82 % 90 % 1013,1 hPa 0,0 l/m 0,0 km/h (0 Bft) NO 45 0 min 7,0 C 9,5 C 0,0 km/h (0 Bft)
21.10.2020 05:45 9,7 C 11,4 C 9,0 C 9,7 C 9,6 C 0,0 C 83 % 90 % 1013,1 hPa 0,0 l/m 0,0 km/h (0 Bft) S-SW 202 0 min 7,0 C 9,6 C 0,0 km/h (0 Bft)
21.10.2020 05:50 9,7 C 11,4 C 9,0 C 9,7 C 9,7 C 0,0 C 83 % 90 % 1013,1 hPa 0,0 l/m 0,0 km/h (0 Bft) W-SW 247 0 min 7,0 C 9,7 C 0,0 km/h (0 Bft)
21.10.2020 05:55 9,7 C 11,3 C 9,1 C 9,8 C 9,8 C 0,1 C 83 % 90 % 1013,5 hPa 0,0 l/m 0,0 km/h (0 Bft) W-SW 247 0 min 7,0 C 9,8 C 0,0 km/h (0 Bft)
21.10.2020 06:00 9,7 C 11,4 C 9,1 C 9,9 C 9,9 C 0,2 C 83 % 90 % 1013,5 hPa 0,0 l/m 0,0 km/h (0 Bft) O-NO 67 0 min 7,0 C 9,9 C 0,0 km/h (0 Bft)
21.10.2020 06:05 9,7 C 11,4 C 9,1 C 10,0 C 10,0 C 0,3 C 83 % 90 % 1013,5 hPa 0,0 l/m 0,0 km/h (0 Bft) O-NO 67 0 min 7,0 C 10,0 C 0,0 km/h (0 Bft)
21.10.2020 06:10 9,8 C 11,4 C 9,1 C 10,0 C 10,0 C 0,2 C 83 % 90 % 1013,5 hPa 0,0 l/m 0,2 km/h (0 Bft) N-NO 22 0 min 7,1 C 10,0 C 0,0 km/h (0 Bft)
21.10.2020 06:15 9,8 C 11,4 C 9,1 C 10,0 C 10,0 C 0,2 C 83 % 90 % 1013,1 hPa 0,0 l/m 0,2 km/h (0 Bft) N-NO 22 0 min 7,1 C 10,0 C 0,0 km/h (0 Bft)
21.10.2020 06:20 9,9 C 11,4 C 9,1 C 10,0 C 10,0 C 0,1 C 84 % 90 % 1013,1 hPa 0,0 l/m 0,0 km/h (0 Bft) W-SW 247 0 min 7,3 C 10,0 C 0,0 km/h (0 Bft)
21.10.2020 06:25 9,9 C 11,4 C 9,1 C 10,1 C 10,1 C 0,2 C 83 % 90 % 1013,1 hPa 0,0 l/m 0,2 km/h (0 Bft) SW 225 0 min 7,2 C 10,1 C 0,0 km/h (0 Bft)
21.10.2020 06:30 9,9 C 11,4 C 9,1 C 10,1 C 10,1 C 0,2 C 83 % 90 % 1013,1 hPa 0,0 l/m 0,2 km/h (0 Bft) SW 225 0 min 7,2 C 10,1 C 0,0 km/h (0 Bft)
21.10.2020 06:35 9,9 C 11,4 C 9,2 C 10,1 C 10,1 C 0,2 C 83 % 90 % 1012,5 hPa 0,0 l/m 0,0 km/h (0 Bft) SW 225 0 min 7,2 C 10,1 C 0,0 km/h (0 Bft)
21.10.2020 06:40 9,9 C 11,4 C 9,1 C 10,1 C 10,1 C 0,2 C 83 % 90 % 1012,5 hPa 0,0 l/m 0,0 km/h (0 Bft) SW 225 0 min 7,2 C 10,1 C 0,0 km/h (0 Bft)
21.10.2020 06:45 9,9 C 11,4 C 9,2 C 10,1 C 10,1 C 0,2 C 83 % 89 % 1012,5 hPa 0,0 l/m 0,0 km/h (0 Bft) SW 225 0 min 7,2 C 10,1 C 0,0 km/h (0 Bft)
21.10.2020 06:50 9,9 C 11,4 C 9,1 C 10,1 C 10,1 C 0,2 C 83 % 89 % 1012,5 hPa 0,0 l/m 0,0 km/h (0 Bft) NW 315 0 min 7,2 C 10,1 C 0,0 km/h (0 Bft)
21.10.2020 06:55 9,8 C 11,4 C 9,1 C 10,1 C 10,1 C 0,3 C 83 % 90 % 1013,5 hPa 0,0 l/m 0,0 km/h (0 Bft) NW 315 0 min 7,1 C 10,1 C 0,0 km/h (0 Bft)
21.10.2020 07:00 9,8 C 11,4 C 9,1 C 10,1 C 10,1 C 0,3 C 83 % 89 % 1013,5 hPa 0,0 l/m 0,0 km/h (0 Bft) N-NW 337 0 min 7,1 C 10,1 C 0,0 km/h (0 Bft)
21.10.2020 07:05 9,9 C 11,4 C 9,1 C 10,1 C 10,1 C 0,2 C 83 % 90 % 1013,5 hPa 0,0 l/m 0,0 km/h (0 Bft) NW 315 0 min 7,2 C 10,1 C 0,0 km/h (0 Bft)
21.10.2020 07:10 9,9 C 11,4 C 9,1 C 10,1 C 10,1 C 0,2 C 83 % 89 % 1013,5 hPa 0,0 l/m 0,0 km/h (0 Bft) NW 315 0 min 7,2 C 10,1 C 0,0 km/h (0 Bft)
21.10.2020 07:15 9,9 C 11,4 C 9,1 C 10,0 C 10,0 C 0,1 C 83 % 90 % 1012,6 hPa 0,0 l/m 0,0 km/h (0 Bft) NW 315 0 min 7,2 C 10,0 C 0,0 km/h (0 Bft)
21.10.2020 07:20 9,9 C 11,4 C 9,1 C 10,0 C 10,0 C 0,1 C 83 % 90 % 1012,6 hPa 0,0 l/m 0,0 km/h (0 Bft) W-NW 292 0 min 7,2 C 10,0 C 0,0 km/h (0 Bft)
21.10.2020 07:25 9,9 C 11,4 C 9,2 C 10,1 C 10,1 C 0,2 C 83 % 90 % 1012,6 hPa 0,0 l/m 0,2 km/h (0 Bft) N-NO 22 0 min 7,2 C 10,1 C 0,0 km/h (0 Bft)
21.10.2020 07:30 9,9 C 11,4 C 9,2 C 10,2 C 10,2 C 0,3 C 83 % 89 % 1012,6 hPa 0,0 l/m 0,0 km/h (0 Bft) N-NO 22 0 min 7,2 C 10,2 C 0,0 km/h (0 Bft)
21.10.2020 07:35 9,9 C 11,5 C 9,2 C 10,1 C 10,1 C 0,2 C 83 % 90 % 1012,8 hPa 0,0 l/m 0,0 km/h (0 Bft) N-NO 22 0 min 7,2 C 10,1 C 0,0 km/h (0 Bft)
21.10.2020 07:40 9,9 C 11,5 C 9,3 C 10,1 C 10,1 C 0,2 C 83 % 89 % 1012,8 hPa 0,0 l/m 0,0 km/h (0 Bft) N-NO 22 0 min 7,2 C 10,1 C 0,0 km/h (0 Bft)
21.10.2020 07:45 9,9 C 11,5 C 9,2 C 10,1 C 10,1 C 0,2 C 83 % 89 % 1012,8 hPa 0,0 l/m 1,3 km/h (1 Bft) N-NO 22 0 min 7,2 C 10,1 C 2,3 km/h (1 Bft)
21.10.2020 07:50 10,0 C 11,5 C 9,2 C 10,3 C 10,3 C 0,3 C 83 % 90 % 1012,8 hPa 0,0 l/m 1,9 km/h (1 Bft) N-NO 22 0 min 7,2 C 10,3 C 2,9 km/h (1 Bft)
21.10.2020 07:55 10,0 C 11,5 C 9,3 C 10,3 C 10,3 C 0,3 C 83 % 89 % 1012,4 hPa 0,0 l/m 1,6 km/h (1 Bft) NO 45 5 min 7,2 C 10,3 C 2,3 km/h (1 Bft)
21.10.2020 08:00 10,0 C 11,5 C 9,3 C 10,3 C 10,3 C 0,3 C 83 % 89 % 1012,4 hPa 0,0 l/m 1,1 km/h (1 Bft) NO 45 5 min 7,2 C 10,3 C 0,0 km/h (0 Bft)
21.10.2020 08:05 10,1 C 11,5 C 9,3 C 10,3 C 10,3 C 0,2 C 83 % 89 % 1012,4 hPa 0,0 l/m 0,5 km/h (0 Bft) NO 45 0 min 7,3 C 10,3 C 0,0 km/h (0 Bft)
21.10.2020 08:10 10,0 C 11,5 C 9,3 C 10,2 C 10,2 C 0,2 C 83 % 89 % 1012,4 hPa 0,0 l/m 0,0 km/h (0 Bft) NO 45 0 min 7,2 C 10,2 C 0,0 km/h (0 Bft)
21.10.2020 08:15 10,0 C 11,5 C 9,3 C 10,3 C 10,3 C 0,3 C 83 % 89 % 1012,4 hPa 0,0 l/m 0,0 km/h (0 Bft) NO 45 0 min 7,2 C 10,3 C 0,0 km/h (0 Bft)
21.10.2020 08:20 10,1 C 11,5 C 9,4 C 10,3 C 10,3 C 0,2 C 83 % 90 % 1012,4 hPa 0,0 l/m 0,0 km/h (0 Bft) NO 45 0 min 7,3 C 10,3 C 0,0 km/h (0 Bft)
21.10.2020 08:25 10,0 C 11,5 C 9,4 C 10,4 C 10,4 C 0,4 C 83 % 90 % 1012,4 hPa 0,0 l/m 0,0 km/h (0 Bft) NO 45 0 min 7,2 C 10,4 C 0,0 km/h (0 Bft)
21.10.2020 08:30 10,1 C 11,5 C 9,4 C 10,5 C 10,5 C 0,4 C 83 % 90 % 1012,4 hPa 0,0 l/m 0,0 km/h (0 Bft) NO 45 0 min 7,3 C 10,5 C 0,0 km/h (0 Bft)
21.10.2020 08:35 10,1 C 11,5 C 9,5 C 10,5 C 10,5 C 0,4 C 83 % 90 % 1012,5 hPa 0,0 l/m 0,2 km/h (0 Bft) N-NO 22 0 min 7,3 C 10,5 C 0,0 km/h (0 Bft)
21.10.2020 08:40 10,2 C 11,5 C 9,5 C 10,7 C 10,7 C 0,5 C 83 % 90 % 1012,5 hPa 0,0 l/m 0,2 km/h (0 Bft) NO 45 0 min 7,4 C 10,7 C 0,0 km/h (0 Bft)
21.10.2020 08:45 10,3 C 11,5 C 9,6 C 10,9 C 10,9 C 0,6 C 83 % 90 % 1012,5 hPa 0,0 l/m 0,2 km/h (0 Bft) W-NW 292 0 min 7,5 C 10,9 C 0,0 km/h (0 Bft)
21.10.2020 08:50 10,3 C 11,4 C 9,8 C 11,2 C 11,2 C 0,9 C 83 % 90 % 1012,5 hPa 0,0 l/m 0,2 km/h (0 Bft) W-NW 292 0 min 7,5 C 11,2 C 0,0 km/h (0 Bft)
21.10.2020 08:55 10,4 C 11,4 C 9,7 C 11,2 C 11,2 C 0,8 C 83 % 90 % 1012,8 hPa 0,0 l/m 0,0 km/h (0 Bft) W-NW 292 0 min 7,6 C 11,2 C 0,0 km/h (0 Bft)
21.10.2020 09:00 10,4 C 11,5 C 9,7 C 11,1 C 11,1 C 0,7 C 83 % 90 % 1012,8 hPa 0,0 l/m 0,0 km/h (0 Bft) W-NW 292 0 min 7,6 C 11,1 C 0,0 km/h (0 Bft)
21.10.2020 09:05 10,5 C 11,5 C 9,7 C 10,8 C 10,8 C 0,3 C 83 % 90 % 1012,8 hPa 0,0 l/m 0,0 km/h (0 Bft) W-NW 292 0 min 7,7 C 10,8 C 0,0 km/h (0 Bft)
21.10.2020 09:10 10,5 C 11,5 C 9,7 C 10,7 C 10,7 C 0,2 C 83 % 90 % 1012,8 hPa 0,0 l/m 0,0 km/h (0 Bft) W-NW 292 0 min 7,7 C 10,7 C 0,0 km/h (0 Bft)
21.10.2020 09:15 10,5 C 11,4 C 9,8 C 10,6 C 10,6 C 0,1 C 84 % 90 % 1012,9 hPa 0,0 l/m 0,0 km/h (0 Bft) W-NW 292 0 min 7,9 C 10,6 C 0,0 km/h (0 Bft)
21.10.2020 09:20 10,6 C 11,4 C 9,8 C 10,7 C 10,7 C 0,1 C 84 % 90 % 1012,9 hPa 0,0 l/m 0,0 km/h (0 Bft) W-NW 292 0 min 8,0 C 10,7 C 0,0 km/h (0 Bft)
21.10.2020 09:25 10,7 C 11,3 C 9,9 C 10,9 C 10,9 C 0,2 C 84 % 90 % 1012,9 hPa 0,0 l/m 0,0 km/h (0 Bft) N-NW 337 0 min 8,1 C 10,9 C 0,0 km/h (0 Bft)
21.10.2020 09:30 10,7 C 11,4 C 9,9 C 10,9 C 10,9 C 0,2 C 84 % 90 % 1012,9 hPa 0,0 l/m 0,2 km/h (0 Bft) NO 45 0 min 8,1 C 10,9 C 1,6 km/h (1 Bft)
21.10.2020 09:35 10,7 C 11,4 C 10,0 C 11,2 C 11,2 C 0,5 C 84 % 90 % 1012,6 hPa 0,0 l/m 0,2 km/h (0 Bft) NO 45 0 min 8,1 C 11,2 C 0,0 km/h (0 Bft)
21.10.2020 09:40 10,8 C 11,4 C 10,0 C 11,1 C 11,1 C 0,3 C 84 % 90 % 1012,6 hPa 0,0 l/m 0,0 km/h (0 Bft) NO 45 0 min 8,2 C 11,1 C 0,0 km/h (0 Bft)
21.10.2020 09:45 10,9 C 11,5 C 10,1 C 11,1 C 11,1 C 0,2 C 84 % 90 % 1012,6 hPa 0,0 l/m 0,0 km/h (0 Bft) NO 45 0 min 8,3 C 11,1 C 0,0 km/h (0 Bft)
21.10.2020 09:50 10,8 C 11,5 C 10,2 C 11,2 C 11,2 C 0,4 C 84 % 90 % 1012,6 hPa 0,0 l/m 0,6 km/h (0 Bft) SO 135 0 min 8,2 C 11,2 C 0,0 km/h (0 Bft)
21.10.2020 09:55 10,9 C 11,5 C 10,3 C 11,7 C 11,7 C 0,8 C 84 % 90 % 1012,4 hPa 0,0 l/m 1,6 km/h (1 Bft) W-NW 292 0 min 8,3 C 11,7 C 0,0 km/h (0 Bft)
21.10.2020 10:00 11,1 C 11,4 C 10,4 C 11,9 C 11,9 C 0,8 C 84 % 90 % 1012,4 hPa 0,0 l/m 1,1 km/h (1 Bft) W 270 0 min 8,5 C 11,9 C 1,6 km/h (1 Bft)
21.10.2020 10:05 11,2 C 11,5 C 10,5 C 12,3 C 12,3 C 1,1 C 84 % 90 % 1012,4 hPa 0,0 l/m 0,2 km/h (0 Bft) NW 315 0 min 8,6 C 12,3 C 0,0 km/h (0 Bft)
21.10.2020 10:10 11,2 C 11,5 C 10,7 C 12,5 C 12,5 C 1,3 C 84 % 90 % 1012,4 hPa 0,0 l/m 0,0 km/h (0 Bft) N-NW 337 0 min 8,6 C 12,5 C 0,0 km/h (0 Bft)
21.10.2020 10:15 11,5 C 11,5 C 10,8 C 12,8 C 12,8 C 1,3 C 84 % 90 % 1012,2 hPa 0,0 l/m 0,0 km/h (0 Bft) W 270 0 min 8,9 C 12,8 C 0,0 km/h (0 Bft)
21.10.2020 10:20 11,4 C 11,5 C 10,8 C 12,9 C 12,9 C 1,5 C 84 % 90 % 1012,2 hPa 0,0 l/m 0,0 km/h (0 Bft) W 270 0 min 8,8 C 12,9 C 0,0 km/h (0 Bft)
21.10.2020 10:25 11,6 C 11,4 C 10,7 C 12,8 C 12,8 C 1,2 C 84 % 90 % 1012,2 hPa 0,0 l/m 0,0 km/h (0 Bft) W 270 0 min 9,0 C 12,8 C 0,0 km/h (0 Bft)
21.10.2020 10:30 11,6 C 11,4 C 10,7 C 12,6 C 12,6 C 1,0 C 84 % 90 % 1012,2 hPa 0,0 l/m 0,0 km/h (0 Bft) W 270 0 min 9,0 C 12,6 C 0,0 km/h (0 Bft)
21.10.2020 10:35 11,6 C 11,5 C 10,7 C 12,5 C 12,5 C 0,9 C 84 % 90 % 1012,4 hPa 0,0 l/m 0,0 km/h (0 Bft) W 270 0 min 9,0 C 12,5 C 0,0 km/h (0 Bft)
21.10.2020 10:40 11,6 C 11,4 C 10,7 C 12,5 C 12,5 C 0,9 C 84 % 90 % 1012,4 hPa 0,0 l/m 0,0 km/h (0 Bft) W 270 0 min 9,0 C 12,5 C 0,0 km/h (0 Bft)
21.10.2020 10:45 11,6 C 11,5 C 10,7 C 12,5 C 12,5 C 0,9 C 84 % 90 % 1012,4 hPa 0,0 l/m 0,0 km/h (0 Bft) W 270 0 min 9,0 C 12,5 C 0,0 km/h (0 Bft)
21.10.2020 10:50 11,6 C 11,5 C 10,7 C 12,4 C 12,4 C 0,8 C 84 % 90 % 1012,4 hPa 0,0 l/m 0,0 km/h (0 Bft) W 270 0 min 9,0 C 12,4 C 0,0 km/h (0 Bft)
21.10.2020 10:55 11,6 C 11,4 C 10,7 C 12,4 C 12,4 C 0,8 C 84 % 90 % 1012,5 hPa 0,0 l/m 0,0 km/h (0 Bft) W 270 0 min 9,0 C 12,4 C 0,0 km/h (0 Bft)
21.10.2020 11:00 11,7 C 11,4 C 10,7 C 12,3 C 12,3 C 0,6 C 83 % 90 % 1012,5 hPa 0,0 l/m 0,0 km/h (0 Bft) W 270 0 min 8,9 C 12,3 C 0,0 km/h (0 Bft)
21.10.2020 11:05 11,6 C 11,5 C 10,7 C 12,3 C 12,3 C 0,7 C 84 % 90 % 1012,5 hPa 0,0 l/m 0,0 km/h (0 Bft) W 270 0 min 9,0 C 12,3 C 0,0 km/h (0 Bft)
21.10.2020 11:10 11,6 C 11,5 C 10,7 C 12,3 C 12,3 C 0,7 C 84 % 90 % 1012,5 hPa 0,0 l/m 0,0 km/h (0 Bft) W 270 0 min 9,0 C 12,3 C 0,0 km/h (0 Bft)
21.10.2020 11:15 11,7 C 11,5 C 10,8 C 12,5 C 12,5 C 0,8 C 84 % 90 % 1012,9 hPa 0,0 l/m 0,0 km/h (0 Bft) W 270 0 min 9,1 C 12,5 C 0,0 km/h (0 Bft)
21.10.2020 11:20 11,7 C 11,5 C 10,9 C 12,6 C 12,6 C 0,9 C 84 % 90 % 1012,9 hPa 0,0 l/m 0,0 km/h (0 Bft) W 270 0 min 9,1 C 12,6 C 0,0 km/h (0 Bft)
21.10.2020 11:25 11,9 C 11,5 C 11,0 C 12,9 C 12,9 C 1,0 C 84 % 90 % 1012,9 hPa 0,0 l/m 0,0 km/h (0 Bft) W 270 0 min 9,3 C 12,9 C 0,0 km/h (0 Bft)
21.10.2020 11:30 11,9 C 11,5 C 11,1 C 13,1 C 13,1 C 1,2 C 84 % 90 % 1012,9 hPa 0,0 l/m 0,0 km/h (0 Bft) SO 135 0 min 9,3 C 13,1 C 0,0 km/h (0 Bft)
21.10.2020 11:35 12,0 C 11,4 C 11,2 C 13,3 C 13,3 C 1,3 C 84 % 89 % 1012,9 hPa 0,0 l/m 0,0 km/h (0 Bft) NO 45 0 min 9,4 C 13,3 C 0,0 km/h (0 Bft)
21.10.2020 11:40 12,0 C 11,4 C 11,4 C 13,5 C 13,5 C 1,5 C 84 % 89 % 1012,9 hPa 0,0 l/m 0,0 km/h (0 Bft) NO 45 0 min 9,4 C 13,5 C 0,0 km/h (0 Bft)
21.10.2020 11:45 12,2 C 11,4 C 11,5 C 13,9 C 13,9 C 1,7 C 83 % 88 % 1012,9 hPa 0,0 l/m 0,3 km/h (0 Bft) O-NO 67 0 min 9,4 C 13,9 C 0,0 km/h (0 Bft)
21.10.2020 11:50 12,3 C 11,4 C 11,6 C 14,0 C 14,0 C 1,7 C 82 % 88 % 1012,9 hPa 0,0 l/m 0,5 km/h (0 Bft) NO 45 0 min 9,3 C 14,0 C 0,0 km/h (0 Bft)
21.10.2020 11:55 12,5 C 11,4 C 11,7 C 14,1 C 14,1 C 1,6 C 81 % 87 % 1012,3 hPa 0,0 l/m 0,3 km/h (0 Bft) NO 45 0 min 9,3 C 14,1 C 0,0 km/h (0 Bft)
21.10.2020 12:00 12,5 C 11,4 C 11,7 C 14,1 C 14,1 C 1,6 C 81 % 87 % 1012,3 hPa 0,0 l/m 0,0 km/h (0 Bft) N-NO 22 0 min 9,3 C 14,1 C 0,0 km/h (0 Bft)
21.10.2020 12:05 12,6 C 11,4 C 11,9 C 14,3 C 14,3 C 1,7 C 81 % 87 % 1012,3 hPa 0,0 l/m 0,0 km/h (0 Bft) N-NO 22 0 min 9,4 C 14,3 C 0,0 km/h (0 Bft)
21.10.2020 12:10 12,6 C 11,4 C 11,9 C 14,3 C 14,3 C 1,7 C 81 % 87 % 1012,3 hPa 0,0 l/m 0,0 km/h (0 Bft) N-NO 22 0 min 9,4 C 14,3 C 0,0 km/h (0 Bft)
21.10.2020 12:15 12,8 C 11,4 C 12,0 C 14,9 C 14,9 C 2,1 C 80 % 87 % 1013,1 hPa 0,0 l/m 0,0 km/h (0 Bft) S 180 0 min 9,4 C 14,9 C 0,0 km/h (0 Bft)
21.10.2020 12:20 13,0 C 11,4 C 12,1 C 15,0 C 15,0 C 2,0 C 80 % 87 % 1013,1 hPa 0,0 l/m 0,0 km/h (0 Bft) S 180 0 min 9,6 C 15,0 C 0,0 km/h (0 Bft)
21.10.2020 12:25 13,2 C 11,4 C 12,3 C 15,4 C 15,4 C 2,2 C 79 % 87 % 1013,1 hPa 0,0 l/m 0,0 km/h (0 Bft) N-NO 22 0 min 9,6 C 15,4 C 0,0 km/h (0 Bft)
21.10.2020 12:30 13,2 C 11,4 C 12,3 C 15,6 C 15,6 C 2,4 C 79 % 87 % 1013,1 hPa 0,0 l/m 0,0 km/h (0 Bft) N-NO 22 0 min 9,6 C 15,6 C 0,0 km/h (0 Bft)
21.10.2020 12:35 13,5 C 11,5 C 12,3 C 15,6 C 15,6 C 2,1 C 78 % 87 % 1012,2 hPa 0,0 l/m 0,0 km/h (0 Bft) SW 225 0 min 9,7 C 15,6 C 0,0 km/h (0 Bft)
21.10.2020 12:40 13,5 C 11,5 C 12,4 C 15,5 C 15,5 C 2,0 C 78 % 86 % 1012,2 hPa 0,0 l/m 0,0 km/h (0 Bft) SW 225 0 min 9,7 C 15,5 C 0,0 km/h (0 Bft)
21.10.2020 12:45 13,7 C 11,5 C 12,5 C 15,7 C 15,7 C 2,0 C 78 % 86 % 1012,2 hPa 0,0 l/m 0,0 km/h (0 Bft) S 180 0 min 9,9 C 15,7 C 0,0 km/h (0 Bft)
21.10.2020 12:50 13,6 C 11,5 C 12,7 C 15,9 C 15,9 C 2,3 C 78 % 86 % 1012,2 hPa 0,0 l/m 0,0 km/h (0 Bft) W-NW 292 0 min 9,8 C 15,9 C 0,0 km/h (0 Bft)
21.10.2020 12:55 13,9 C 11,5 C 12,7 C 16,0 C 16,0 C 2,1 C 79 % 86 % 1012,3 hPa 0,0 l/m 0,0 km/h (0 Bft) W-NW 292 0 min 10,3 C 16,0 C 0,0 km/h (0 Bft)
21.10.2020 13:00 13,9 C 11,5 C 12,8 C 16,1 C 16,1 C 2,2 C 79 % 86 % 1012,3 hPa 0,0 l/m 0,0 km/h (0 Bft) W-SW 247 0 min 10,3 C 16,1 C 0,0 km/h (0 Bft)
21.10.2020 13:05 14,0 C 11,5 C 12,9 C 16,1 C 16,1 C 2,1 C 78 % 86 % 1012,3 hPa 0,0 l/m 0,0 km/h (0 Bft) W-SW 247 0 min 10,2 C 16,1 C 0,0 km/h (0 Bft)
21.10.2020 13:10 14,1 C 11,5 C 12,9 C 16,1 C 16,1 C 2,0 C 78 % 86 % 1012,3 hPa 0,0 l/m 0,0 km/h (0 Bft) N-NW 337 0 min 10,3 C 16,1 C 0,0 km/h (0 Bft)
21.10.2020 13:15 14,1 C 11,6 C 12,9 C 15,9 C 15,9 C 1,8 C 78 % 86 % 1012,0 hPa 0,0 l/m 0,0 km/h (0 Bft) N 360 0 min 10,3 C 15,9 C 0,0 km/h (0 Bft)
21.10.2020 13:20 14,1 C 11,6 C 12,9 C 15,8 C 15,8 C 1,7 C 78 % 86 % 1012,0 hPa 0,0 l/m 0,0 km/h (0 Bft) O-NO 67 0 min 10,3 C 15,8 C 0,0 km/h (0 Bft)
21.10.2020 13:25 14,2 C 11,6 C 12,9 C 15,5 C 15,5 C 1,3 C 78 % 86 % 1012,0 hPa 0,0 l/m 0,0 km/h (0 Bft) W-SW 247 0 min 10,4 C 15,5 C 0,0 km/h (0 Bft)
21.10.2020 13:30 14,2 C 11,7 C 13,0 C 15,5 C 15,5 C 1,3 C 79 % 87 % 1012,0 hPa 0,0 l/m 0,0 km/h (0 Bft) W-SW 247 0 min 10,6 C 15,5 C 0,0 km/h (0 Bft)
21.10.2020 13:35 14,3 C 11,6 C 13,0 C 15,6 C 15,6 C 1,3 C 79 % 87 % 1012,1 hPa 0,0 l/m 0,0 km/h (0 Bft) W-SW 247 0 min 10,7 C 15,6 C 0,0 km/h (0 Bft)
21.10.2020 13:40 14,4 C 11,7 C 13,1 C 15,7 C 15,7 C 1,3 C 79 % 87 % 1012,1 hPa 0,0 l/m 0,0 km/h (0 Bft) W-SW 247 0 min 10,8 C 15,7 C 0,0 km/h (0 Bft)
21.10.2020 13:45 14,5 C 11,7 C 13,3 C 16,2 C 16,2 C 1,7 C 79 % 87 % 1012,1 hPa 0,0 l/m 0,0 km/h (0 Bft) W-SW 247 0 min 10,9 C 16,2 C 0,0 km/h (0 Bft)
21.10.2020 13:50 14,7 C 11,6 C 13,5 C 16,9 C 16,9 C 2,2 C 80 % 87 % 1012,1 hPa 0,0 l/m 0,0 km/h (0 Bft) W-SW 247 0 min 11,3 C 16,9 C 0,0 km/h (0 Bft)
21.10.2020 13:55 14,8 C 11,5 C 13,8 C 17,7 C 17,7 C 2,9 C 79 % 87 % 1011,3 hPa 0,0 l/m 0,0 km/h (0 Bft) W-SW 247 0 min 11,2 C 17,7 C 0,0 km/h (0 Bft)
21.10.2020 14:00 15,1 C 11,5 C 13,9 C 17,9 C 17,9 C 2,8 C 78 % 87 % 1011,3 hPa 0,0 l/m 0,0 km/h (0 Bft) W-SW 247 0 min 11,3 C 17,9 C 0,0 km/h (0 Bft)
21.10.2020 14:05 15,3 C 11,6 C 14,1 C 18,1 C 18,1 C 2,8 C 78 % 86 % 1011,3 hPa 0,0 l/m 0,0 km/h (0 Bft) W-SW 247 0 min 11,5 C 18,1 C 0,0 km/h (0 Bft)
21.10.2020 14:10 15,3 C 11,6 C 14,1 C 18,5 C 18,5 C 3,2 C 78 % 86 % 1011,3 hPa 0,0 l/m 0,0 km/h (0 Bft) W-SW 247 0 min 11,5 C 18,5 C 0,0 km/h (0 Bft)
21.10.2020 14:15 15,5 C 11,6 C 14,2 C 18,6 C 18,6 C 3,1 C 78 % 86 % 1011,4 hPa 0,0 l/m 0,0 km/h (0 Bft) W-SW 247 0 min 11,7 C 18,6 C 0,0 km/h (0 Bft)
21.10.2020 14:20 15,7 C 11,6 C 14,2 C 18,5 C 18,5 C 2,8 C 77 % 86 % 1011,4 hPa 0,0 l/m 0,0 km/h (0 Bft) W-SW 247 0 min 11,7 C 18,5 C 0,0 km/h (0 Bft)
21.10.2020 14:25 15,7 C 11,6 C 14,3 C 18,3 C 18,3 C 2,6 C 76 % 86 % 1011,4 hPa 0,0 l/m 0,0 km/h (0 Bft) W-SW 247 0 min 11,5 C 18,3 C 0,0 km/h (0 Bft)
21.10.2020 14:30 15,9 C 11,6 C 14,2 C 18,2 C 18,2 C 2,3 C 77 % 85 % 1011,4 hPa 0,0 l/m 0,0 km/h (0 Bft) W-SW 247 0 min 11,9 C 18,2 C 0,0 km/h (0 Bft)
21.10.2020 14:35 15,8 C 11,6 C 14,1 C 17,7 C 17,7 C 1,9 C 76 % 85 % 1011,1 hPa 0,0 l/m 0,0 km/h (0 Bft) W-SW 247 0 min 11,6 C 17,7 C 0,0 km/h (0 Bft)
21.10.2020 14:40 15,9 C 11,7 C 14,0 C 17,4 C 17,4 C 1,5 C 76 % 86 % 1011,1 hPa 0,0 l/m 0,0 km/h (0 Bft) W-SW 247 0 min 11,7 C 17,4 C 0,0 km/h (0 Bft)
21.10.2020 14:45 15,9 C 11,7 C 14,1 C 17,2 C 17,2 C 1,3 C 76 % 86 % 1011,1 hPa 0,0 l/m 0,0 km/h (0 Bft) W-SW 247 0 min 11,7 C 17,2 C 0,0 km/h (0 Bft)
21.10.2020 14:50 16,0 C 11,7 C 14,0 C 17,2 C 17,2 C 1,2 C 77 % 86 % 1011,1 hPa 0,0 l/m 0,0 km/h (0 Bft) W-SW 247 0 min 12,0 C 17,2 C 0,0 km/h (0 Bft)
21.10.2020 14:55 16,0 C 11,7 C 13,9 C 17,1 C 17,1 C 1,1 C 77 % 86 % 1011,3 hPa 0,0 l/m 0,0 km/h (0 Bft) W-SW 247 0 min 12,0 C 17,1 C 0,0 km/h (0 Bft)
21.10.2020 15:00 16,0 C 11,7 C 13,9 C 17,0 C 17,0 C 1,0 C 77 % 86 % 1011,3 hPa 0,0 l/m 0,0 km/h (0 Bft) W-SW 247 0 min 12,0 C 17,0 C 0,0 km/h (0 Bft)
21.10.2020 15:05 15,9 C 11,7 C 13,9 C 16,8 C 16,8 C 0,9 C 77 % 87 % 1011,3 hPa 0,0 l/m 0,0 km/h (0 Bft) W-SW 247 0 min 11,9 C 16,8 C 0,0 km/h (0 Bft)
21.10.2020 15:12 15,9 C 11,7 C 13,8 C 16,4 C 16,4 C 0,5 C 77 % 87 % 1011,0 hPa 0,0 l/m 0,0 km/h (0 Bft) W-SW 247 0 min 11,9 C 16,4 C 0,0 km/h (0 Bft)
21.10.2020 15:15 15,9 C 11,7 C 13,8 C 16,4 C 16,4 C 0,5 C 77 % 87 % 1011,0 hPa 0,0 l/m 0,0 km/h (0 Bft) W-SW 247 0 min 11,9 C 16,4 C 0,0 km/h (0 Bft)
21.10.2020 15:23 15,7 C 11,8 C 13,7 C 15,9 C 15,9 C 0,2 C 78 % 87 % 1011,0 hPa 0,0 l/m 0,0 km/h (0 Bft) W-SW 247 0 min 11,9 C 15,9 C 0,0 km/h (0 Bft)
21.10.2020 15:24 15,7 C 11,8 C 13,7 C 15,9 C 15,9 C 0,2 C 78 % 87 % 1011,0 hPa 0,0 l/m 0,0 km/h (0 Bft) W-SW 247 0 min 11,9 C 15,9 C 0,0 km/h (0 Bft)
21.10.2020 15:25 15,7 C 11,8 C 13,7 C 15,9 C 15,9 C 0,2 C 78 % 87 % 1011,0 hPa 0,0 l/m 0,0 km/h (0 Bft) W-SW 247 0 min 11,9 C 15,9 C 0,0 km/h (0 Bft)
21.10.2020 15:26 15,7 C 11,8 C 13,7 C 15,9 C 15,9 C 0,2 C 78 % 87 % 1011,0 hPa 0,0 l/m 0,0 km/h (0 Bft) W-SW 247 0 min 11,9 C 15,9 C 0,0 km/h (0 Bft)
21.10.2020 15:27 15,6 C 11,8 C 13,7 C 15,7 C 15,7 C 0,1 C 78 % 87 % 1011,0 hPa 0,0 l/m 0,0 km/h (0 Bft) W-SW 247 0 min 11,8 C 15,7 C 0,0 km/h (0 Bft)
21.10.2020 15:29 15,6 C 11,8 C 13,7 C 15,7 C 15,7 C 0,1 C 78 % 87 % 1011,0 hPa 0,0 l/m 0,0 km/h (0 Bft) W-SW 247 0 min 11,8 C 15,7 C 0,0 km/h (0 Bft)
21.10.2020 15:30 15,6 C 11,8 C 13,7 C 15,7 C 15,7 C 0,1 C 78 % 87 % 1011,0 hPa 0,0 l/m 0,0 km/h (0 Bft) W-SW 247 0 min 11,8 C 15,7 C 0,0 km/h (0 Bft)
21.10.2020 15:40 15,5 C 11,9 C 13,6 C 15,5 C 15,5 C 0,0 C 78 % 88 % 1010,9 hPa 0,0 l/m 0,0 km/h (0 Bft) W-SW 247 0 min 11,7 C 15,5 C 0,0 km/h (0 Bft)
21.10.2020 15:45 15,5 C 11,9 C 13,7 C 15,7 C 15,7 C 0,2 C 79 % 88 % 1010,9 hPa 0,0 l/m 0,0 km/h (0 Bft) W-SW 247 0 min 11,9 C 15,7 C 0,0 km/h (0 Bft)
21.10.2020 15:51 15,5 C 11,8 C 13,8 C 15,9 C 15,9 C 0,4 C 80 % 88 % 1010,9 hPa 0,0 l/m 0,0 km/h (0 Bft) W-SW 247 0 min 12,1 C 15,9 C 0,0 km/h (0 Bft)
21.10.2020 15:52 15,4 C 11,9 C 14,1 C 16,1 C 16,1 C 0,7 C 80 % 88 % 1010,8 hPa 0,0 l/m 0,0 km/h (0 Bft) W-SW 247 0 min 12,0 C 16,1 C 0,0 km/h (0 Bft)
21.10.2020 15:53 15,4 C 11,9 C 14,1 C 16,1 C 16,1 C 0,7 C 80 % 88 % 1010,8 hPa 0,0 l/m 0,0 km/h (0 Bft) W-SW 247 0 min 12,0 C 16,1 C 0,0 km/h (0 Bft)
21.10.2020 15:54 15,4 C 11,9 C 14,1 C 16,1 C 16,1 C 0,7 C 80 % 88 % 1010,8 hPa 0,0 l/m 0,0 km/h (0 Bft) W-SW 247 0 min 12,0 C 16,1 C 0,0 km/h (0 Bft)
21.10.2020 15:55 15,4 C 11,9 C 14,1 C 16,1 C 16,1 C 0,7 C 80 % 88 % 1010,8 hPa 0,0 l/m 0,0 km/h (0 Bft) W-SW 247 0 min 12,0 C 16,1 C 0,0 km/h (0 Bft)
21.10.2020 15:57 15,4 C 11,9 C 14,0 C 16,2 C 16,2 C 0,8 C 81 % 88 % 1010,8 hPa 0,0 l/m 0,0 km/h (0 Bft) W-SW 247 0 min 12,2 C 16,2 C 0,0 km/h (0 Bft)
21.10.2020 15:59 15,4 C 11,9 C 14,0 C 16,2 C 16,2 C 0,8 C 81 % 88 % 1010,8 hPa 0,0 l/m 0,0 km/h (0 Bft) W-SW 247 0 min 12,2 C 16,2 C 0,0 km/h (0 Bft)
21.10.2020 16:00 15,4 C 11,9 C 14,0 C 16,2 C 16,2 C 0,8 C 81 % 88 % 1010,8 hPa 0,0 l/m 0,0 km/h (0 Bft) W-SW 247 0 min 12,2 C 16,2 C 0,0 km/h (0 Bft)
21.10.2020 16:10 15,5 C 11,8 C 14,1 C 16,3 C 16,3 C 0,8 C 81 % 89 % 1010,8 hPa 0,0 l/m 0,0 km/h (0 Bft) NO 45 0 min 12,3 C 16,3 C 0,0 km/h (0 Bft)
21.10.2020 16:11 15,5 C 11,8 C 14,1 C 16,3 C 16,3 C 0,8 C 81 % 89 % 1010,8 hPa 0,0 l/m 0,0 km/h (0 Bft) N 0 0 min 12,3 C 16,3 C 0,0 km/h (0 Bft)
21.10.2020 16:12 15,4 C 11,8 C 14,2 C 16,4 C 16,4 C 1,0 C 81 % 88 % 1010,6 hPa 0,0 l/m 0,0 km/h (0 Bft) W-SW 247 0 min 12,2 C 16,4 C 0,0 km/h (0 Bft)
21.10.2020 16:17 15,4 C 11,8 C 14,2 C 16,4 C 16,4 C 1,0 C 81 % 88 % 1010,6 hPa 0,0 l/m 0,0 km/h (0 Bft) W 270 0 min 12,2 C 16,4 C 0,0 km/h (0 Bft)
21.10.2020 16:22 15,5 C 11,8 C 14,3 C 16,5 C 16,5 C 1,0 C 81 % 88 % 1010,6 hPa 0,0 l/m 0,0 km/h (0 Bft) SW 225 0 min 12,3 C 16,5 C 0,0 km/h (0 Bft)
21.10.2020 16:27 15,4 C 11,8 C 14,3 C 16,5 C 16,5 C 1,1 C 80 % 87 % 1010,6 hPa 0,0 l/m 0,0 km/h (0 Bft) S 180 0 min 12,0 C 16,5 C 0,0 km/h (0 Bft)
21.10.2020 16:32 15,5 C 11,8 C 14,3 C 16,6 C 16,6 C 1,1 C 80 % 86 % 1011,1 hPa 0,0 l/m 0,0 km/h (0 Bft) SW 225 0 min 12,1 C 16,6 C 0,0 km/h (0 Bft)
21.10.2020 16:35 15,5 C 11,8 C 14,3 C 16,6 C 16,6 C 1,1 C 80 % 86 % 1011,1 hPa 0,0 l/m 0,0 km/h (0 Bft) SW 225 0 min 12,1 C 16,6 C 0,0 km/h (0 Bft)
21.10.2020 16:40 15,5 C 11,8 C 14,3 C 16,6 C 16,6 C 1,1 C 79 % 86 % 1011,1 hPa 0,0 l/m 0,0 km/h (0 Bft) NW 315 0 min 11,9 C 16,6 C 0,0 km/h (0 Bft)
21.10.2020 16:45 15,4 C 11,8 C 14,2 C 16,6 C 16,6 C 1,2 C 79 % 86 % 1011,1 hPa 0,0 l/m 0,0 km/h (0 Bft) SO 135 0 min 11,8 C 16,6 C 0,0 km/h (0 Bft)
21.10.2020 16:50 15,5 C 11,8 C 14,3 C 16,6 C 16,6 C 1,1 C 78 % 86 % 1011,1 hPa 0,0 l/m 0,0 km/h (0 Bft) O-NO 67 0 min 11,7 C 16,6 C 0,0 km/h (0 Bft)
21.10.2020 16:55 15,5 C 11,8 C 14,2 C 16,5 C 16,5 C 1,0 C 78 % 86 % 1010,7 hPa 0,0 l/m 0,0 km/h (0 Bft) NO 45 0 min 11,7 C 16,5 C 0,0 km/h (0 Bft)
21.10.2020 17:00 15,5 C 11,8 C 14,2 C 16,4 C 16,4 C 0,9 C 77 % 86 % 1010,7 hPa 0,0 l/m 0,0 km/h (0 Bft) S 180 0 min 11,5 C 16,4 C 0,0 km/h (0 Bft)
21.10.2020 17:05 15,5 C 11,9 C 14,1 C 16,3 C 16,3 C 0,8 C 77 % 86 % 1010,7 hPa 0,0 l/m 0,0 km/h (0 Bft) S-SO 157 0 min 11,5 C 16,3 C 0,0 km/h (0 Bft)
21.10.2020 17:10 15,5 C 11,9 C 14,0 C 16,2 C 16,2 C 0,7 C 77 % 86 % 1010,7 hPa 0,0 l/m 0,0 km/h (0 Bft) NO 45 0 min 11,5 C 16,2 C 0,0 km/h (0 Bft)
21.10.2020 17:15 15,5 C 11,9 C 14,0 C 16,1 C 16,1 C 0,6 C 77 % 86 % 1010,7 hPa 0,0 l/m 0,0 km/h (0 Bft) SO 135 0 min 11,5 C 16,1 C 0,0 km/h (0 Bft)
21.10.2020 17:20 15,4 C 11,9 C 13,9 C 16,0 C 16,0 C 0,6 C 77 % 86 % 1010,7 hPa 0,0 l/m 0,0 km/h (0 Bft) SO 135 0 min 11,4 C 16,0 C 0,0 km/h (0 Bft)
21.10.2020 17:25 15,4 C 11,9 C 13,9 C 15,8 C 15,8 C 0,4 C 76 % 86 % 1010,7 hPa 0,0 l/m 0,0 km/h (0 Bft) S 180 0 min 11,2 C 15,8 C 0,0 km/h (0 Bft)
21.10.2020 17:30 15,4 C 11,9 C 13,7 C 15,8 C 15,8 C 0,4 C 76 % 86 % 1010,7 hPa 0,0 l/m 0,0 km/h (0 Bft) S-SW 202 0 min 11,2 C 15,8 C 0,0 km/h (0 Bft)
21.10.2020 17:35 15,3 C 11,9 C 13,7 C 15,8 C 15,8 C 0,5 C 76 % 86 % 1010,5 hPa 0,0 l/m 0,2 km/h (0 Bft) S 180 0 min 11,1 C 15,8 C 0,0 km/h (0 Bft)
21.10.2020 17:40 15,3 C 11,9 C 13,7 C 15,7 C 15,7 C 0,4 C 76 % 86 % 1010,5 hPa 0,0 l/m 0,2 km/h (0 Bft) O-NO 67 0 min 11,1 C 15,7 C 0,0 km/h (0 Bft)
21.10.2020 17:45 15,3 C 11,9 C 13,7 C 15,6 C 15,6 C 0,3 C 76 % 86 % 1010,5 hPa 0,0 l/m 0,2 km/h (0 Bft) W-SW 247 0 min 11,1 C 15,6 C 0,0 km/h (0 Bft)
21.10.2020 17:50 15,2 C 11,9 C 13,7 C 15,6 C 15,6 C 0,4 C 76 % 86 % 1010,5 hPa 0,0 l/m 0,0 km/h (0 Bft) W-SW 247 5 min 11,0 C 15,6 C 0,0 km/h (0 Bft)
21.10.2020 17:55 15,3 C 12,0 C 13,5 C 15,4 C 15,4 C 0,1 C 76 % 86 % 1010,7 hPa 0,0 l/m 0,0 km/h (0 Bft) O-NO 67 0 min 11,1 C 15,4 C 0,0 km/h (0 Bft)
21.10.2020 18:00 15,1 C 12,0 C 13,5 C 15,2 C 15,2 C 0,1 C 76 % 86 % 1010,7 hPa 0,0 l/m 0,0 km/h (0 Bft) O-NO 67 0 min 10,9 C 15,2 C 0,0 km/h (0 Bft)
21.10.2020 18:05 15,1 C 12,0 C 13,5 C 15,1 C 15,0 C 0,0 C 77 % 86 % 1010,7 hPa 0,0 l/m 0,0 km/h (0 Bft) SO 135 0 min 11,1 C 15,0 C 0,0 km/h (0 Bft)
21.10.2020 18:11 14,9 C 12,0 C 13,4 C 14,9 C 14,9 C 0,0 C 76 % 86 % 1010,7 hPa 0,0 l/m 0,2 km/h (0 Bft) N 0 0 min 10,7 C 14,9 C 0,0 km/h (0 Bft)
21.10.2020 18:28 14,8 C 12,0 C 13,2 C 14,9 C 14,9 C 0,1 C 76 % 85 % 1010,6 hPa 0,0 l/m 0,0 km/h (0 Bft) S-SO 157 0 min 10,6 C 14,9 C 0,0 km/h (0 Bft)
21.10.2020 18:39 14,6 C 12,1 C 12,9 C 14,6 C 14,6 C 0,0 C 76 % 85 % 1010,9 hPa 0,0 l/m 0,0 km/h (0 Bft) S-SO 157 0 min 10,4 C 14,6 C 0,0 km/h (0 Bft)
21.10.2020 18:45 14,5 C 12,1 C 12,8 C 14,5 C 14,4 C 0,0 C 76 % 86 % 1010,9 hPa 0,0 l/m 0,0 km/h (0 Bft) S-SO 157 0 min 10,3 C 14,4 C 0,0 km/h (0 Bft)
21.10.2020 18:50 14,3 C 12,1 C 12,8 C 14,3 C 14,3 C 0,0 C 76 % 86 % 1010,9 hPa 0,0 l/m 0,0 km/h (0 Bft) S-SO 157 0 min 10,1 C 14,3 C 0,0 km/h (0 Bft)
21.10.2020 18:55 14,3 C 12,2 C 12,7 C 14,3 C 14,3 C 0,0 C 76 % 86 % 1011,0 hPa 0,0 l/m 0,0 km/h (0 Bft) O-SO 112 0 min 10,1 C 14,3 C 0,0 km/h (0 Bft)
21.10.2020 19:00 14,2 C 12,2 C 12,7 C 14,4 C 14,4 C 0,2 C 76 % 86 % 1011,0 hPa 0,0 l/m 0,0 km/h (0 Bft) SO 135 0 min 10,0 C 14,4 C 0,0 km/h (0 Bft)
21.10.2020 19:05 14,1 C 12,0 C 12,7 C 14,7 C 14,7 C 0,6 C 75 % 85 % 1011,0 hPa 0,0 l/m 0,3 km/h (0 Bft) S 180 0 min 9,7 C 14,7 C 6,3 km/h (2 Bft)
21.10.2020 19:10 14,3 C 12,0 C 13,0 C 14,9 C 14,9 C 0,6 C 74 % 85 % 1011,0 hPa 0,0 l/m 1,0 km/h (0 Bft) S 180 0 min 9,7 C 14,9 C 4,3 km/h (1 Bft)
21.10.2020 19:15 14,7 C 12,0 C 13,5 C 15,5 C 15,5 C 0,8 C 72 % 83 % 1010,9 hPa 0,0 l/m 1,4 km/h (1 Bft) SO 135 0 min 9,7 C 15,5 C 2,7 km/h (1 Bft)
21.10.2020 19:20 15,1 C 12,0 C 13,5 C 15,7 C 15,7 C 0,6 C 71 % 82 % 1010,9 hPa 0,0 l/m 1,8 km/h (1 Bft) S 180 0 min 9,9 C 15,7 C 4,2 km/h (1 Bft)
21.10.2020 19:25 15,5 C 12,0 C 13,5 C 15,9 C 15,9 C 0,4 C 68 % 80 % 1010,9 hPa 0,0 l/m 1,4 km/h (1 Bft) W-SW 247 0 min 9,6 C 15,9 C 1,8 km/h (1 Bft)
21.10.2020 19:30 15,5 C 12,1 C 13,6 C 16,0 C 16,0 C 0,5 C 67 % 80 % 1010,9 hPa 0,0 l/m 0,8 km/h (0 Bft) SW 225 0 min 9,4 C 16,0 C 0,0 km/h (0 Bft)
21.10.2020 19:35 15,7 C 12,1 C 13,5 C 15,8 C 15,8 C 0,1 C 66 % 79 % 1011,3 hPa 0,0 l/m 0,2 km/h (0 Bft) SW 225 0 min 9,4 C 15,8 C 0,0 km/h (0 Bft)
21.10.2020 19:40 15,7 C 12,1 C 13,3 C 15,7 C 15,6 C 0,0 C 66 % 78 % 1011,3 hPa 0,0 l/m 0,0 km/h (0 Bft) S-SO 157 0 min 9,4 C 15,6 C 0,0 km/h (0 Bft)
21.10.2020 19:45 15,5 C 12,1 C 13,1 C 15,4 C 15,2 C 0,0 C 66 % 79 % 1011,3 hPa 0,0 l/m 0,0 km/h (0 Bft) O-NO 67 0 min 9,2 C 15,2 C 0,0 km/h (0 Bft)
21.10.2020 19:50 15,3 C 12,1 C 12,9 C 15,2 C 15,0 C 0,0 C 66 % 79 % 1011,3 hPa 0,0 l/m 0,0 km/h (0 Bft) O-NO 67 0 min 9,0 C 15,0 C 0,0 km/h (0 Bft)
21.10.2020 19:55 15,1 C 12,1 C 12,6 C 14,9 C 14,6 C 0,0 C 66 % 79 % 1011,3 hPa 0,0 l/m 0,0 km/h (0 Bft) NO 45 0 min 8,8 C 14,6 C 0,0 km/h (0 Bft)
21.10.2020 20:00 14,8 C 12,1 C 12,5 C 14,6 C 14,3 C 0,0 C 66 % 79 % 1011,3 hPa 0,0 l/m 0,0 km/h (0 Bft) NO 45 0 min 8,5 C 14,3 C 0,0 km/h (0 Bft)
21.10.2020 20:06 14,6 C 12,1 C 12,3 C 14,4 C 13,9 C 0,0 C 66 % 80 % 1011,3 hPa 0,0 l/m 0,0 km/h (0 Bft) O-NO 67 0 min 8,3 C 13,9 C 0,0 km/h (0 Bft)
21.10.2020 20:07 14,4 C 12,2 C 12,2 C 14,2 C 13,7 C 0,0 C 67 % 81 % 1011,3 hPa 0,0 l/m 0,0 km/h (0 Bft) N 0 0 min 8,4 C 13,7 C 0,0 km/h (0 Bft)
21.10.2020 20:13 14,3 C 12,2 C 12,0 C 14,0 C 13,5 C 0,0 C 68 % 81 % 1011,2 hPa 0,0 l/m 0,0 km/h (0 Bft) N 0 0 min 8,5 C 13,5 C 0,0 km/h (0 Bft)
21.10.2020 20:15 14,3 C 12,2 C 12,0 C 14,0 C 13,5 C 0,0 C 68 % 81 % 1011,2 hPa 0,0 l/m 0,0 km/h (0 Bft) N 0 0 min 8,5 C 13,5 C 0,0 km/h (0 Bft)
21.10.2020 20:20 14,1 C 12,2 C 12,0 C 13,9 C 13,5 C 0,0 C 68 % 81 % 1011,2 hPa 0,0 l/m 0,0 km/h (0 Bft) S 180 0 min 8,3 C 13,5 C 0,0 km/h (0 Bft)
21.10.2020 20:25 14,1 C 12,1 C 12,1 C 13,9 C 13,5 C 0,0 C 68 % 81 % 1011,2 hPa 0,0 l/m 0,0 km/h (0 Bft) S-SO 157 0 min 8,3 C 13,5 C 0,0 km/h (0 Bft)
21.10.2020 20:26 14,1 C 12,1 C 12,1 C 13,9 C 13,5 C 0,0 C 68 % 81 % 1011,2 hPa 0,0 l/m 0,0 km/h (0 Bft) S-SO 157 0 min 8,3 C 13,5 C 0,0 km/h (0 Bft)
21.10.2020 20:27 14,0 C 12,1 C 12,1 C 13,9 C 13,7 C 0,0 C 68 % 81 % 1011,2 hPa 0,0 l/m 0,2 km/h (0 Bft) SW 225 0 min 8,2 C 13,7 C 2,4 km/h (1 Bft)
21.10.2020 20:28 14,0 C 12,1 C 12,1 C 13,9 C 13,7 C 0,0 C 68 % 81 % 1011,2 hPa 0,0 l/m 0,2 km/h (0 Bft) SW 225 0 min 8,2 C 13,7 C 2,4 km/h (1 Bft)
21.10.2020 20:29 14,0 C 12,1 C 12,1 C 13,9 C 13,7 C 0,0 C 68 % 81 % 1011,2 hPa 0,0 l/m 0,2 km/h (0 Bft) SW 225 0 min 8,2 C 13,7 C 2,4 km/h (1 Bft)
21.10.2020 20:31 14,0 C 12,1 C 12,1 C 13,9 C 13,7 C 0,0 C 68 % 81 % 1011,2 hPa 0,0 l/m 0,2 km/h (0 Bft) SW 225 0 min 8,2 C 13,7 C 2,4 km/h (1 Bft)
21.10.2020 20:35 14,0 C 12,1 C 12,1 C 14,0 C 13,9 C 0,0 C 68 % 81 % 1011,4 hPa 0,0 l/m 0,2 km/h (0 Bft) S 180 0 min 8,2 C 13,9 C 0,0 km/h (0 Bft)
21.10.2020 20:40 14,0 C 12,1 C 12,2 C 14,0 C 14,0 C 0,0 C 68 % 81 % 1011,4 hPa 0,0 l/m 0,2 km/h (0 Bft) S 180 0 min 8,2 C 14,0 C 0,0 km/h (0 Bft)
21.10.2020 20:45 14,1 C 12,1 C 12,3 C 14,0 C 13,9 C 0,0 C 68 % 79 % 1011,4 hPa 0,0 l/m 0,2 km/h (0 Bft) O-SO 112 0 min 8,3 C 13,9 C 0,0 km/h (0 Bft)
21.10.2020 20:50 14,0 C 12,1 C 12,1 C 14,0 C 13,9 C 0,0 C 68 % 79 % 1011,4 hPa 0,0 l/m 0,2 km/h (0 Bft) S 180 0 min 8,2 C 13,9 C 0,0 km/h (0 Bft)
21.10.2020 20:55 13,9 C 12,1 C 12,0 C 13,9 C 13,9 C 0,0 C 68 % 80 % 1012,2 hPa 0,0 l/m 0,2 km/h (0 Bft) SO 135 0 min 8,1 C 13,9 C 1,9 km/h (1 Bft)
21.10.2020 21:00 13,8 C 12,1 C 12,0 C 13,9 C 13,9 C 0,1 C 68 % 80 % 1012,2 hPa 0,0 l/m 0,2 km/h (0 Bft) SO 135 0 min 8,0 C 13,9 C 0,0 km/h (0 Bft)
21.10.2020 21:05 13,8 C 12,1 C 11,9 C 13,8 C 13,7 C 0,0 C 68 % 80 % 1012,2 hPa 0,0 l/m 0,0 km/h (0 Bft) W-SW 247 0 min 8,0 C 13,7 C 0,0 km/h (0 Bft)
21.10.2020 21:10 13,6 C 12,1 C 11,8 C 13,5 C 13,4 C 0,0 C 69 % 80 % 1012,2 hPa 0,0 l/m 0,0 km/h (0 Bft) S-SO 157 0 min 8,0 C 13,4 C 0,0 km/h (0 Bft)
21.10.2020 21:15 13,5 C 12,2 C 11,7 C 13,4 C 13,2 C 0,0 C 69 % 80 % 1012,0 hPa 0,0 l/m 0,0 km/h (0 Bft) SO 135 0 min 7,9 C 13,2 C 0,0 km/h (0 Bft)
21.10.2020 21:20 13,4 C 12,2 C 11,6 C 13,3 C 13,1 C 0,0 C 69 % 80 % 1012,0 hPa 0,0 l/m 0,0 km/h (0 Bft) S 180 0 min 7,8 C 13,1 C 0,0 km/h (0 Bft)
21.10.2020 21:25 13,4 C 12,1 C 11,7 C 13,5 C 13,5 C 0,1 C 69 % 81 % 1012,0 hPa 0,0 l/m 0,5 km/h (0 Bft) S 180 0 min 7,8 C 13,5 C 4,2 km/h (1 Bft)
21.10.2020 21:30 13,6 C 12,1 C 11,8 C 13,7 C 13,7 C 0,1 C 69 % 80 % 1012,0 hPa 0,0 l/m 0,8 km/h (0 Bft) S 180 0 min 8,0 C 13,7 C 2,6 km/h (1 Bft)
21.10.2020 21:35 13,9 C 12,1 C 11,9 C 14,0 C 14,0 C 0,1 C 68 % 80 % 1011,9 hPa 0,0 l/m 1,1 km/h (1 Bft) S-SW 202 0 min 8,1 C 14,0 C 1,8 km/h (1 Bft)
21.10.2020 21:40 14,0 C 12,1 C 11,9 C 14,1 C 14,1 C 0,1 C 68 % 80 % 1011,9 hPa 0,0 l/m 0,6 km/h (0 Bft) S-SW 202 0 min 8,2 C 14,1 C 0,0 km/h (0 Bft)
21.10.2020 21:45 14,0 C 12,1 C 11,9 C 14,0 C 14,0 C 0,0 C 68 % 80 % 1011,9 hPa 0,0 l/m 0,3 km/h (0 Bft) W-SW 247 0 min 8,2 C 14,0 C 1,6 km/h (1 Bft)
21.10.2020 21:50 14,1 C 12,1 C 11,9 C 14,1 C 14,0 C 0,0 C 68 % 80 % 1011,9 hPa 0,0 l/m 0,2 km/h (0 Bft) SO 135 0 min 8,3 C 14,0 C 0,0 km/h (0 Bft)
21.10.2020 21:55 14,0 C 12,1 C 11,8 C 13,9 C 13,8 C 0,0 C 67 % 80 % 1011,9 hPa 0,0 l/m 0,0 km/h (0 Bft) S 180 0 min 8,0 C 13,8 C 0,0 km/h (0 Bft)
21.10.2020 22:00 14,0 C 12,2 C 11,9 C 13,9 C 13,8 C 0,0 C 67 % 79 % 1011,9 hPa 0,0 l/m 0,2 km/h (0 Bft) S 180 0 min 8,0 C 13,8 C 0,0 km/h (0 Bft)
21.10.2020 22:05 14,0 C 12,2 C 11,9 C 13,9 C 13,7 C 0,0 C 67 % 80 % 1011,9 hPa 0,0 l/m 0,2 km/h (0 Bft) S 180 0 min 8,0 C 13,7 C 0,0 km/h (0 Bft)
21.10.2020 22:11 14,1 C 12,1 C 11,9 C 14,0 C 13,7 C 0,0 C 68 % 80 % 1011,9 hPa 0,0 l/m 0,2 km/h (0 Bft) N 0 0 min 8,3 C 13,7 C 0,0 km/h (0 Bft)
21.10.2020 22:27 14,1 C 12,2 C 12,1 C 14,0 C 13,7 C 0,0 C 67 % 80 % 1012,1 hPa 0,0 l/m 0,2 km/h (0 Bft) S 180 0 min 8,1 C 13,7 C 0,0 km/h (0 Bft)
21.10.2020 22:38 13,9 C 12,2 C 11,7 C 13,7 C 13,3 C 0,0 C 68 % 80 % 1012,4 hPa 0,0 l/m 0,0 km/h (0 Bft) O-SO 112 0 min 8,1 C 13,3 C 0,0 km/h (0 Bft)
21.10.2020 22:39 13,9 C 12,2 C 11,7 C 13,7 C 13,3 C 0,0 C 68 % 80 % 1012,4 hPa 0,0 l/m 0,0 km/h (0 Bft) O-SO 112 0 min 8,1 C 13,3 C 0,0 km/h (0 Bft)
21.10.2020 22:45 13,7 C 12,2 C 11,6 C 13,5 C 13,1 C 0,0 C 68 % 80 % 1012,4 hPa 0,0 l/m 0,0 km/h (0 Bft) S-SW 202 0 min 7,9 C 13,1 C 1,6 km/h (1 Bft)
21.10.2020 22:50 13,7 C 12,2 C 11,7 C 13,6 C 13,4 C 0,0 C 68 % 80 % 1012,4 hPa 0,0 l/m 0,2 km/h (0 Bft) S 180 0 min 7,9 C 13,4 C 2,7 km/h (1 Bft)
21.10.2020 22:55 13,9 C 12,2 C 11,7 C 13,8 C 13,7 C 0,0 C 68 % 80 % 1012,7 hPa 0,0 l/m 0,3 km/h (0 Bft) S-SW 202 0 min 8,1 C 13,7 C 0,0 km/h (0 Bft)
21.10.2020 23:00 13,9 C 12,2 C 11,8 C 13,9 C 13,9 C 0,0 C 68 % 80 % 1012,7 hPa 0,0 l/m 0,3 km/h (0 Bft) O-SO 112 0 min 8,1 C 13,9 C 0,0 km/h (0 Bft)
21.10.2020 23:05 14,0 C 12,2 C 12,0 C 14,1 C 14,1 C 0,1 C 68 % 80 % 1012,7 hPa 0,0 l/m 0,2 km/h (0 Bft) S-SO 157 0 min 8,2 C 14,1 C 0,0 km/h (0 Bft)
21.10.2020 23:10 14,2 C 12,2 C 12,3 C 14,3 C 14,3 C 0,1 C 68 % 80 % 1012,7 hPa 0,0 l/m 0,6 km/h (0 Bft) SO 135 0 min 8,4 C 14,3 C 2,9 km/h (1 Bft)
21.10.2020 23:15 14,5 C 12,2 C 12,4 C 14,7 C 14,7 C 0,2 C 67 % 79 % 1012,7 hPa 0,0 l/m 1,0 km/h (0 Bft) S-SW 202 0 min 8,4 C 14,7 C 0,0 km/h (0 Bft)
21.10.2020 23:20 14,7 C 12,2 C 12,5 C 14,9 C 14,9 C 0,2 C 67 % 79 % 1012,7 hPa 0,0 l/m 1,3 km/h (1 Bft) S 180 0 min 8,6 C 14,9 C 5,8 km/h (2 Bft)
21.10.2020 23:25 15,1 C 12,2 C 12,9 C 15,4 C 15,4 C 0,3 C 66 % 78 % 1012,7 hPa 0,0 l/m 1,6 km/h (1 Bft) S 180 0 min 8,8 C 15,4 C 0,0 km/h (0 Bft)
21.10.2020 23:30 15,3 C 12,2 C 13,1 C 15,5 C 15,5 C 0,2 C 66 % 77 % 1012,7 hPa 0,0 l/m 1,9 km/h (1 Bft) S 180 0 min 9,0 C 15,5 C 3,5 km/h (1 Bft)
21.10.2020 23:35 15,5 C 12,2 C 13,3 C 15,6 C 15,6 C 0,1 C 65 % 76 % 1012,8 hPa 0,0 l/m 0,8 km/h (0 Bft) S 180 0 min 8,9 C 15,6 C 0,0 km/h (0 Bft)
21.10.2020 23:40 15,4 C 12,2 C 13,3 C 15,6 C 15,6 C 0,2 C 65 % 76 % 1012,8 hPa 0,0 l/m 0,5 km/h (0 Bft) S 180 0 min 8,9 C 15,6 C 0,0 km/h (0 Bft)
21.10.2020 23:45 15,5 C 12,2 C 13,3 C 15,4 C 15,3 C 0,0 C 65 % 76 % 1012,8 hPa 0,0 l/m 0,2 km/h (0 Bft) O-NO 67 0 min 8,9 C 15,3 C 0,0 km/h (0 Bft)
21.10.2020 23:50 15,3 C 12,2 C 13,3 C 15,3 C 15,2 C 0,0 C 64 % 76 % 1012,8 hPa 0,0 l/m 0,3 km/h (0 Bft) S 180 0 min 8,5 C 15,2 C 0,0 km/h (0 Bft)
21.10.2020 23:55 15,3 C 12,2 C 13,1 C 15,3 C 15,3 C 0,0 C 65 % 76 % 1012,7 hPa 0,0 l/m 0,6 km/h (0 Bft) S-SO 157 0 min 8,8 C 15,3 C 0,0 km/h (0 Bft)
_ Min-Zeit 01:15 03:15 00:15 00:35 00:15 00:00 23:50 23:35 17:35 - 00:00 - - - 00:35 00:15 00:00
Minimum _ 9,1 C 11,2 C 8,7 C 9,1 C 8,9 C 0,0 C 64 % 76 % 1010,5 hPa - 0,0 km/h (0 Bft) - - - 6,5 C 8,9 C 0,0 km/h (0 Bft)
_ Max-Zeit 14:50 18:55 14:25 14:15 14:15 14:10 02:00 01:55 01:15 00:00 07:50 - - 07:55 16:10 14:15 19:05
Maximum _ 16,0 C 12,2 C 14,3 C 18,6 C 18,6 C 3,2 C 85 % 90 % 1015,6 hPa 0,0 l/m 1,9 km/h
N-NO (1 Bft)
- - 5 min 12,3 C 18,6 C 6,3 km/h
S (2 Bft)
Durchschnitt _ 12,4 C 11,6 C 11,2 C 13,0 C 12,9 C 0,5 C 79 % 87 % 1012,6 hPa #0,0 l/m 0,1 km/h (0 Bft) S - #15 min. 8,7 C 12,9 C 0,3 km/h (0 Bft)
2020 www.wetterstation-wechselburg.de